[[{"header":{"parameterUnit":"m.s-1","parameterCategory":2,"la1":30.2991,"la2":30.254,"lo1":-89.0895,"lo2":-89.0444,"dy":0.0017,"dx":0.0017,"nx":28,"ny":28,"refTime":"2025-11-07T03:00:00:Z","depth":"0","parameterNumber":2,"parameterNumberName":"U-component_of_CURRENTS"},"data":[0,0,0,0,0,0,0,0,0,0,0,0,0,0,0,0,0,0,0,0,0,0,0,0,0,0,0,0,0,0,0,0,0,0,0,0,0,0,0,0,0,0,0,0,0,0,0,0,0,0,0,0,0,0,0,0,0,0,-0.2582,-0.2583,0,-0.264,-0.2641,-0.2641,-0.2636,-0.2635,-0.2635,-0.2634,-0.2602,-0.2602,-0.2602,0,0,0,0,0,0,0,0,0,0,0,0,0,-0.2423,-0.2426,-0.2582,-0.2583,-0.2584,-0.264,-0.2641,-0.2641,-0.2636,-0.2635,-0.2635,-0.2634,-0.2602,-0.2602,-0.2602,0,0,0,0,0,0,0,0,0,0,0,0,0,-0.2485,-0.2427,-0.2582,-0.2591,-0.2592,-0.264,-0.2641,-0.2641,-0.2636,-0.2635,-0.2635,-0.2634,-0.2602,-0.2602,-0.2601,-0.2616,0,0,-0.26,-0.26,0,0,0,0,0,0,0,0,-0.2481,-0.249,-0.2588,-0.259,-0.2592,-0.2633,-0.2573,-0.263,-0.2637,-0.2616,-0.2634,-0.2633,-0.2607,-0.2606,-0.2616,-0.2615,-0.2614,-0.26,-0.26,-0.26,-0.2599,0,0,0,0,0,0,0,-0.2477,-0.2487,-0.2602,-0.259,-0.2592,-0.2577,-0.2585,-0.2584,-0.2612,-0.2618,-0.2618,-0.263,-0.2607,-0.2616,-0.2615,-0.2613,-0.26,-0.26,-0.2599,-0.2599,-0.2597,-0.2598,0,0,0,0,0,0,-0.248,-0.2484,-0.26,-0.2604,-0.2537,-0.2581,-0.259,-0.2618,-0.2614,-0.2614,-0.2631,-0.263,-0.2617,-0.2615,-0.2613,-0.2605,-0.26,-0.2599,-0.2599,-0.2597,-0.2597,-0.2598,0,0,0,0,0,0,-0.2477,-0.2491,-0.2598,-0.2546,-0.2559,-0.2586,-0.2617,-0.262,-0.2627,-0.2625,-0.2623,-0.2635,-0.2617,-0.2614,-0.2612,-0.2604,-0.2599,-0.2599,-0.2597,-0.2597,-0.2598,-0.2605,0,0,0,0,0,0,-0.2472,-0.249,-0.25,-0.2548,-0.2563,-0.2619,-0.2618,-0.2622,-0.2637,-0.2636,-0.2628,-0.2624,-0.2616,-0.2613,-0.2612,-0.2604,-0.2598,-0.2597,-0.2597,-0.2597,-0.2604,-0.2605,-0.2606,0,0,0,0,0,-0.2467,-0.2487,-0.25,-0.2514,-0.258,-0.262,-0.2625,-0.2637,-0.2638,-0.264,-0.2639,-0.2624,-0.2614,-0.2614,-0.2612,-0.2603,-0.2596,-0.2597,-0.2597,-0.2604,-0.2605,-0.2606,0,0,0,0,0,0,-0.2414,-0.249,-0.2505,-0.2545,-0.2577,-0.262,-0.2626,-0.264,-0.2644,-0.264,-0.2633,-0.263,-0.2616,-0.2618,-0.2617,-0.2605,-0.2601,-0.2601,-0.2606,-0.2607,-0.2608,-0.2621,-0.2598,0,0,0,0,0,-0.2412,-0.2451,-0.2509,-0.2536,-0.2557,-0.2592,-0.2607,-0.2622,-0.264,-0.2641,-0.2636,-0.2631,-0.262,-0.2621,-0.2607,-0.2614,-0.2602,-0.2606,-0.2607,-0.2608,-0.2618,-0.2645,-0.265,-0.2599,-0.2599,-0.2599,0,0,-0.2394,-0.2445,-0.2461,-0.2528,-0.2555,-0.2584,-0.2598,-0.2627,-0.2641,-0.2636,-0.264,-0.2627,-0.2619,-0.2614,-0.261,-0.2616,-0.2599,-0.2609,-0.2609,-0.262,-0.2646,-0.2651,-0.2656,-0.26,-0.26,-0.26,0,0,-0.2384,-0.243,-0.2457,-0.2492,-0.2546,-0.2573,-0.2582,-0.2626,-0.2632,-0.2646,-0.2635,-0.2634,-0.2622,-0.2623,-0.262,-0.2626,-0.2594,-0.2607,-0.2636,-0.2661,-0.2666,-0.267,-0.2587,-0.2584,-0.2621,-0.2621,-0.2621,0,-0.2354,-0.2412,-0.2464,-0.2501,-0.2533,-0.2569,-0.2598,-0.2613,-0.2643,-0.2663,-0.2643,-0.2649,-0.263,-0.2647,-0.2634,-0.2628,-0.2603,-0.263,-0.2663,-0.2668,-0.2672,-0.2587,-0.2584,-0.2621,-0.2621,-0.2621,-0.2621,0,-0.2369,-0.2412,-0.2431,-0.2498,-0.2533,-0.2564,-0.2609,-0.263,-0.2643,-0.2665,-0.2678,-0.2665,-0.2677,-0.2659,-0.2642,-0.2661,-0.2613,-0.2651,-0.2661,-0.2678,-0.2586,-0.2582,-0.2622,-0.2622,-0.2622,-0.2621,0,0,-0.23,-0.242,-0.2421,-0.2473,-0.254,-0.2582,-0.2609,-0.2663,-0.27,-0.2702,-0.2741,-0.2714,-0.2718,-0.2715,-0.2698,-0.2714,-0.2679,-0.2691,-0.2692,-0.2608,-0.2654,-0.2555,-0.254,-0.2731,-0.2732,-0.2733,-0.255,0,-0.2289,-0.2371,-0.2427,-0.2494,-0.2545,-0.2604,-0.2639,-0.2691,-0.2718,-0.2756,-0.276,-0.2772,-0.2736,-0.2737,-0.2747,-0.27,-0.2683,-0.272,-0.2652,-0.2648,-0.2561,-0.254,-0.2422,-0.2247,-0.2546,-0.2545,-0.2545,0,-0.2269,-0.2344,-0.2409,-0.2542,-0.2569,-0.2602,-0.2699,-0.2737,-0.2794,-0.2815,-0.284,-0.2837,-0.2824,-0.2812,-0.2748,-0.2771,-0.2708,-0.2673,-0.2667,-0.2581,-0.2546,-0.2295,-0.2229,-0.222,-0.2539,-0.254,-0.254,0,-0.2211,-0.2329,-0.239,-0.2428,-0.2564,-0.2606,-0.267,-0.2747,-0.2777,-0.2846,-0.2843,-0.2876,-0.282,-0.2823,-0.2706,-0.2737,-0.2622,-0.2665,-0.2507,-0.2495,-0.2385,-0.2363,-0.2312,-0.2641,-0.2641,-0.2642,-0.2642,0,-0.2179,-0.223,-0.2373,-0.2408,-0.25,-0.2596,-0.2668,-0.2739,-0.2795,-0.2779,-0.2854,-0.2806,-0.2823,-0.2749,-0.2711,-0.2554,-0.2617,-0.249,-0.2462,-0.2373,-0.2353,-0.2335,-0.2373,-0.2635,-0.2636,-0.2637,-0.2639,0,-0.2095,-0.2179,-0.2273,-0.2424,-0.2471,-0.2534,-0.2649,-0.2668,-0.2742,-0.271,-0.2714,-0.2711,-0.2606,-0.2593,-0.2528,-0.2483,-0.2363,-0.2351,-0.2184,-0.2142,-0.2022,-0.2064,-0.1979,-0.1926,-0.2161,-0.2158,-0.2155,0,-0.2063,-0.2095,-0.2261,-0.2299,-0.2361,-0.2463,-0.2489,-0.2616,-0.2586,-0.2603,-0.2523,-0.2474,-0.2366,-0.2245,-0.2202,-0.2122,-0.217,-0.1966,-0.2041,-0.1981,-0.2007,-0.2053,-0.202,-0.1848,-0.1843,-0.1839,-0.1836,0,-0.1991,-0.2038,-0.2107,-0.2196,-0.2241,-0.2294,-0.2322,-0.2304,-0.2356,-0.2334,-0.2225,-0.2184,-0.2064,-0.1939,-0.1869,-0.1827,-0.1931,-0.1878,-0.1895,-0.1818,-0.179,-0.1734,-0.1937,-0.1799,-0.1803,-0.1806,-0.1808,-0.1809,-0.1909,-0.1934,-0.2001,-0.2073,-0.2109,-0.2058,-0.2024,-0.2012,-0.1965,-0.1868,-0.1907,-0.1817,-0.1764,-0.1661,-0.1611,-0.152,-0.1624,-0.1508,-0.1564,-0.1616,-0.1583,-0.1654,-0.1464,-0.1466,-0.1467,-0.1468,-0.147,0,-0.1795,-0.182,-0.1869,-0.1907,-0.1854,-0.1926,-0.1844,-0.1753,-0.1619,-0.1599,-0.1536,-0.1488,-0.1378,-0.1376,-0.1302,-0.1247,-0.1253,-0.124,-0.1302,-0.1287,-0.1391,-0.1398,-0.1093,-0.1093,-0.1093,-0.1093,-0.1093,-0.1093,-0.1731,-0.1714,-0.1745,-0.1641,-0.1635,-0.1485,-0.1399,-0.1301,-0.1253,-0.1156,-0.1154,-0.1196,-0.1215,-0.1294,-0.1206,-0.1144,-0.1163,-0.1102,-0.1172,-0.1281,-0.1313,-0.1343,-0.1359,-0.105,-0.105,-0.1004,-0.1004,-0.1004]},{"header":{"parameterUnit":"m.s-1","parameterCategory":2,"la1":30.2991,"la2":30.254,"lo1":-89.0895,"lo2":-89.0444,"dy":0.0017,"dx":0.0017,"nx":28,"ny":28,"refTime":"2025-11-07T03:00:00:Z","depth":"0","parameterNumber":3,"parameterNumberName":"V-component_of_CURRENTS"},"data":[0,0,0,0,0,0,0,0,0,0,0,0,0,0,0,0,0,0,0,0,0,0,0,0,0,0,0,0,0,0,0,0,0,0,0,0,0,0,0,0,0,0,0,0,0,0,0,0,0,0,0,0,0,0,0,0,0,0,0.0005,0.0006,0,0.0131,0.0132,0.0134,0.0205,0.0205,0.0205,0.0205,0.0322,0.0325,0.0328,0,0,0,0,0,0,0,0,0,0,0,0,0,-0.0105,-0.0104,0.0005,0.0006,0.0008,0.013,0.0132,0.0134,0.0205,0.0205,0.0205,0.0205,0.0321,0.0325,0.0328,0,0,0,0,0,0,0,0,0,0,0,0,0,-0.0026,-0.0103,0.0005,0.0057,0.0063,0.013,0.0132,0.0134,0.0205,0.0205,0.0205,0.0205,0.032,0.0324,0.0329,0.0352,0,0,0.0342,0.0344,0,0,0,0,0,0,0,0,-0.003,-0.0021,0.0048,0.0054,0.006,0.0151,0.0136,0.0206,0.0205,0.0152,0.0205,0.0205,0.0263,0.0273,0.0297,0.0357,0.0362,0.0343,0.0346,0.0347,0.0349,0,0,0,0,0,0,0,-0.0036,-0.0026,0.0056,0.005,0.0057,0.0098,0.0109,0.015,0.0205,0.0157,0.0162,0.0174,0.0267,0.0293,0.03,0.0364,0.0343,0.0347,0.0349,0.0351,0.0468,0.0468,0,0,0,0,0,0,-0.0057,-0.0032,0.0052,0.0059,0.0014,0.0099,0.0112,0.0123,0.0205,0.0218,0.0174,0.0177,0.0285,0.0295,0.0305,0.0326,0.0347,0.0352,0.0354,0.0467,0.0468,0.0468,0,0,0,0,0,0,-0.006,-0.0051,0.0047,0.0016,0.0031,0.01,0.0113,0.0125,0.015,0.0218,0.0231,0.0185,0.0286,0.0299,0.0346,0.0332,0.0354,0.0358,0.0467,0.0468,0.0468,0.0376,0,0,0,0,0,0,-0.0064,-0.0053,-0.0056,0.0014,0.0032,0.0077,0.0113,0.0127,0.0157,0.0162,0.0233,0.0244,0.0287,0.0339,0.035,0.0338,0.0361,0.0466,0.0467,0.0468,0.0378,0.0373,0.0369,0,0,0,0,0,-0.0068,-0.0075,-0.0057,-0.0047,0.0027,0.0077,0.009,0.0141,0.0157,0.0165,0.0218,0.0242,0.0352,0.0343,0.0356,0.0345,0.0466,0.0467,0.0468,0.038,0.0374,0.0369,0,0,0,0,0,0,-0.0128,-0.0066,-0.0045,-0.0034,0.0014,0.0088,0.0099,0.0134,0.0183,0.0187,0.025,0.0265,0.0299,0.0342,0.033,0.0384,0.0412,0.0415,0.0341,0.0336,0.0331,0.0315,0.0365,0,0,0,0,0,-0.0143,-0.0131,-0.0065,-0.0058,-0.0037,0.0029,0.0054,0.0089,0.0144,0.0166,0.0216,0.0271,0.0315,0.0339,0.0386,0.0416,0.0451,0.042,0.0415,0.041,0.0409,0.0447,0.0444,0.0472,0.0472,0.0472,0,0,-0.0166,-0.013,-0.0124,-0.007,-0.003,-0.0003,0.0045,0.0077,0.0099,0.017,0.0208,0.0254,0.032,0.0354,0.0372,0.0386,0.0422,0.0412,0.0407,0.0408,0.0447,0.0444,0.0442,0.0472,0.0472,0.0472,0,0,-0.02,-0.0173,-0.0169,-0.0134,-0.0078,-0.0035,-0.003,0.0041,0.0071,0.0116,0.0168,0.0208,0.0281,0.0323,0.0354,0.0354,0.0394,0.0367,0.0329,0.0365,0.0362,0.036,0.0396,0.0398,0.0365,0.0365,0.0365,0,-0.0232,-0.0213,-0.0162,-0.0145,-0.0125,-0.0055,-0.0046,-0.0002,0.0074,0.0092,0.0116,0.0214,0.0267,0.0305,0.0309,0.034,0.0368,0.0338,0.0355,0.0354,0.0354,0.0391,0.0395,0.036,0.0361,0.0361,0.0362,0,-0.025,-0.0239,-0.0235,-0.0192,-0.0165,-0.0148,-0.0083,-0.0055,-0.0014,0.0031,0.0075,0.015,0.0207,0.0227,0.0272,0.0293,0.0316,0.0339,0.0359,0.0345,0.0386,0.0391,0.0354,0.0356,0.0357,0.0358,0,0,-0.0314,-0.026,-0.026,-0.0257,-0.0191,-0.0176,-0.0143,-0.0096,-0.0087,-0.0017,0.0002,0.008,0.0116,0.0155,0.0208,0.0244,0.0268,0.0285,0.0289,0.0303,0.0345,0.0382,0.0392,0.0287,0.0287,0.0288,0.0371,0,-0.0345,-0.0341,-0.0296,-0.0301,-0.0296,-0.0233,-0.0214,-0.0168,-0.0117,-0.0079,-0.0006,0.0034,0.009,0.0109,0.0154,0.0247,0.0278,0.0243,0.0374,0.0378,0.0397,0.0398,0.0433,0.0512,0.0377,0.0378,0.0378,0,-0.0373,-0.0371,-0.0376,-0.0365,-0.0358,-0.0347,-0.0318,-0.0289,-0.0215,-0.0179,-0.0123,-0.0058,0.0017,0.0059,0.0193,0.0167,0.0245,0.0312,0.0317,0.0388,0.0425,0.0509,0.0527,0.0658,0.0387,0.0386,0.0386,0,-0.0444,-0.0431,-0.0445,-0.0436,-0.0402,-0.0401,-0.0382,-0.0323,-0.0311,-0.0239,-0.0217,-0.0124,-0.007,0.0036,0.0191,0.0189,0.0338,0.0354,0.0455,0.0459,0.0535,0.0544,0.0681,0.0429,0.0429,0.0429,0.0429,0,-0.0488,-0.0504,-0.0483,-0.049,-0.0529,-0.0475,-0.0493,-0.0457,-0.0404,-0.0388,-0.0277,-0.0235,-0.0074,0.0042,0.0169,0.0339,0.0324,0.0451,0.0484,0.0505,0.051,0.0666,0.0712,0.0432,0.0431,0.0431,0.043,0,-0.0547,-0.0525,-0.0559,-0.0553,-0.0556,-0.0587,-0.0575,-0.058,-0.0514,-0.0483,-0.0462,-0.0317,-0.0154,0.0014,0.0202,0.0313,0.0552,0.0521,0.0537,0.057,0.0778,0.0817,0.0981,0.1066,0.0643,0.0645,0.0646,0,-0.0568,-0.0584,-0.0623,-0.0657,-0.0653,-0.0682,-0.0694,-0.0647,-0.0634,-0.0523,-0.0505,-0.0349,-0.0207,0.0089,0.0303,0.0527,0.0625,0.0675,0.0677,0.08,0.0868,0.0892,0.0953,0.0743,0.0745,0.0746,0.0748,0,-0.0617,-0.0632,-0.0667,-0.0742,-0.0775,-0.0807,-0.0806,-0.0812,-0.0731,-0.0674,-0.0549,-0.0426,-0.0125,0.0161,0.0445,0.0581,0.0778,0.0713,0.0844,0.096,0.0994,0.1087,0.0675,0.0762,0.076,0.0759,0.0758,0.0758,-0.0658,-0.0712,-0.0758,-0.0833,-0.0877,-0.0896,-0.0901,-0.087,-0.083,-0.0694,-0.0577,-0.0341,0.005,0.0472,0.0622,0.0941,0.0905,0.1042,0.1079,0.1094,0.1176,0.0791,0.0909,0.0908,0.0908,0.0908,0.0907,0,-0.0703,-0.0758,-0.0838,-0.091,-0.0962,-0.0957,-0.0947,-0.091,-0.084,-0.0683,-0.0523,-0.0048,0.0342,0.0693,0.1132,0.1306,0.1343,0.1388,0.1441,0.1487,0.1159,0.1166,0.1341,0.1341,0.134,0.134,0.134,0.134,-0.0728,-0.0811,-0.086,-0.096,-0.0997,-0.1006,-0.0987,-0.0912,-0.0788,-0.0496,-0.0212,0.0029,0.054,0.1206,0.1611,0.165,0.1804,0.1777,0.1861,0.1641,0.1611,0.1583,0.1603,0.1866,0.1867,0.219,0.2193,0.2195]}],[{"header":{"parameterUnit":"m.s-1","parameterCategory":2,"la1":30.2991,"la2":30.254,"lo1":-89.0895,"lo2":-89.0444,"dy":0.0017,"dx":0.0017,"nx":28,"ny":28,"refTime":"2025-11-07T03:00:00:Z","depth":"2","parameterNumber":2,"parameterNumberName":"U-component_of_CURRENTS"},"data":[0,0,0,0,0,0,0,0,0,0,0,0,0,0,0,0,0,0,0,0,0,0,0,0,0,0,0,0,0,0,0,0,0,0,0,0,0,0,0,0,0,0,0,0,0,0,0,0,0,0,0,0,0,0,0,0,0,0,-0.1731,-0.1732,0,-0.1759,-0.1759,-0.176,-0.1761,-0.176,-0.176,-0.176,-0.1728,-0.1727,-0.1727,0,0,0,0,0,0,0,0,0,0,0,0,0,-0.1665,-0.1666,-0.1731,-0.1732,-0.1732,-0.1759,-0.1759,-0.176,-0.1761,-0.176,-0.176,-0.176,-0.1728,-0.1727,-0.1726,0,0,0,0,0,0,0,0,0,0,0,0,0,-0.1692,-0.1667,-0.1731,-0.1738,-0.1739,-0.1759,-0.1759,-0.176,-0.1761,-0.176,-0.176,-0.176,-0.1728,-0.1727,-0.1726,-0.1724,0,0,-0.1723,-0.1723,0,0,0,0,0,0,0,0,-0.169,-0.1694,-0.1736,-0.1737,-0.1738,-0.1758,-0.1725,-0.1746,-0.1761,-0.175,-0.176,-0.176,-0.1734,-0.1732,-0.1736,-0.1723,-0.1721,-0.1723,-0.1722,-0.1722,-0.1722,0,0,0,0,0,0,0,-0.1688,-0.1693,-0.174,-0.1737,-0.1738,-0.1735,-0.1738,-0.1729,-0.174,-0.1751,-0.1752,-0.1758,-0.1734,-0.1737,-0.1735,-0.1721,-0.1723,-0.1722,-0.1721,-0.1721,-0.1776,-0.1778,0,0,0,0,0,0,-0.169,-0.1691,-0.1739,-0.1741,-0.1715,-0.1736,-0.174,-0.175,-0.1742,-0.1741,-0.1758,-0.1758,-0.1739,-0.1737,-0.1734,-0.1775,-0.1722,-0.1721,-0.172,-0.1774,-0.1776,-0.1778,0,0,0,0,0,0,-0.1689,-0.1694,-0.1738,-0.1718,-0.1724,-0.1738,-0.1749,-0.1751,-0.1765,-0.1748,-0.1746,-0.1772,-0.1739,-0.1736,-0.1746,-0.1772,-0.172,-0.1719,-0.1771,-0.1774,-0.1777,-0.1829,0,0,0,0,0,0,-0.1687,-0.1694,-0.1702,-0.1718,-0.1725,-0.1764,-0.175,-0.1752,-0.1769,-0.177,-0.1759,-0.1755,-0.1738,-0.1748,-0.1745,-0.177,-0.1719,-0.1768,-0.1773,-0.1776,-0.1824,-0.1833,-0.1841,0,0,0,0,0,-0.1684,-0.1699,-0.1703,-0.1709,-0.1736,-0.1765,-0.1769,-0.1776,-0.177,-0.1785,-0.1782,-0.1756,-0.1772,-0.1749,-0.1745,-0.1769,-0.1766,-0.1771,-0.1776,-0.1821,-0.1831,-0.184,0,0,0,0,0,0,-0.1672,-0.1701,-0.1705,-0.1728,-0.1751,-0.1767,-0.1777,-0.1784,-0.1794,-0.1791,-0.1772,-0.177,-0.1787,-0.1779,-0.1755,-0.1802,-0.1769,-0.1773,-0.1804,-0.1814,-0.1822,-0.1824,-0.1718,0,0,0,0,0,-0.1675,-0.1692,-0.1721,-0.1736,-0.1751,-0.1766,-0.1778,-0.1788,-0.1798,-0.1802,-0.1798,-0.1799,-0.1803,-0.1809,-0.1806,-0.1828,-0.1811,-0.1848,-0.1856,-0.1863,-0.1865,-0.1924,-0.1938,-0.1794,-0.1794,-0.1794,0,0,-0.1671,-0.169,-0.1698,-0.1735,-0.1748,-0.1775,-0.1772,-0.1798,-0.1822,-0.1795,-0.1821,-0.1818,-0.1814,-0.1839,-0.1849,-0.1836,-0.1879,-0.1869,-0.1874,-0.1873,-0.193,-0.1944,-0.1957,-0.1797,-0.1796,-0.1796,0,0,-0.1674,-0.1693,-0.1711,-0.1735,-0.1769,-0.1784,-0.1797,-0.1826,-0.1843,-0.1871,-0.186,-0.1883,-0.1885,-0.1899,-0.1902,-0.1959,-0.1915,-0.1959,-0.2005,-0.2063,-0.2075,-0.2085,-0.2007,-0.201,-0.1971,-0.1971,-0.1971,0,-0.1668,-0.1696,-0.172,-0.1747,-0.1766,-0.1792,-0.1817,-0.1845,-0.1874,-0.1905,-0.1887,-0.1927,-0.1918,-0.1962,-0.198,-0.1976,-0.1958,-0.1962,-0.2072,-0.2083,-0.2093,-0.2011,-0.2014,-0.1974,-0.1974,-0.1973,-0.1973,0,-0.1685,-0.1712,-0.1725,-0.1766,-0.1792,-0.1819,-0.1862,-0.189,-0.1911,-0.1954,-0.2005,-0.2002,-0.2035,-0.2037,-0.2018,-0.2089,-0.2029,-0.2068,-0.2042,-0.2111,-0.2018,-0.202,-0.1979,-0.1977,-0.1977,-0.1976,0,0,-0.1654,-0.1724,-0.1726,-0.175,-0.1805,-0.1826,-0.1874,-0.194,-0.1982,-0.2026,-0.2078,-0.2108,-0.2132,-0.2137,-0.2129,-0.2168,-0.2189,-0.2147,-0.2149,-0.2056,-0.222,-0.2131,-0.2123,-0.226,-0.2262,-0.2265,-0.2098,0,-0.1657,-0.1713,-0.1742,-0.1783,-0.1819,-0.1853,-0.1896,-0.1962,-0.2018,-0.2078,-0.2124,-0.2168,-0.2168,-0.2171,-0.2225,-0.2198,-0.2211,-0.2224,-0.2179,-0.2174,-0.2082,-0.2132,-0.197,-0.1809,-0.21,-0.2101,-0.2101,0,-0.1654,-0.1701,-0.1752,-0.1808,-0.1822,-0.1853,-0.1922,-0.1968,-0.2075,-0.2129,-0.2212,-0.223,-0.2276,-0.2271,-0.2289,-0.2299,-0.2268,-0.2242,-0.2237,-0.2146,-0.2095,-0.1806,-0.1802,-0.2104,-0.2104,-0.2103,-0.2103,0,-0.1625,-0.1691,-0.1734,-0.1755,-0.1833,-0.1858,-0.1899,-0.2,-0.2039,-0.2172,-0.2198,-0.2291,-0.2286,-0.2326,-0.2272,-0.2291,-0.2256,-0.2282,-0.2156,-0.2142,-0.1991,-0.1963,-0.2312,-0.2312,-0.2313,-0.2313,-0.2314,0,-0.1615,-0.1639,-0.173,-0.1755,-0.1789,-0.1859,-0.1917,-0.1977,-0.207,-0.2118,-0.223,-0.2237,-0.2311,-0.2287,-0.2275,-0.2198,-0.227,-0.2152,-0.2127,-0.1994,-0.197,-0.2239,-0.2232,-0.2307,-0.2308,-0.231,-0.2311,0,-0.1568,-0.163,-0.1657,-0.1745,-0.1778,-0.1798,-0.1886,-0.1923,-0.2039,-0.2084,-0.211,-0.2183,-0.2164,-0.2171,-0.217,-0.2155,-0.2118,-0.2073,-0.184,-0.1794,-0.1942,-0.194,-0.1907,-0.1904,-0.1901,-0.1898,-0.1896,0,-0.1547,-0.1574,-0.1633,-0.1641,-0.1679,-0.1747,-0.1784,-0.19,-0.1937,-0.2027,-0.2015,-0.2018,-0.1995,-0.1942,-0.1924,-0.1859,-0.1975,-0.1682,-0.1733,-0.1937,-0.1916,-0.192,-0.1923,-0.1493,-0.1488,-0.1484,-0.148,0,-0.1495,-0.1507,-0.1531,-0.1564,-0.1587,-0.1617,-0.1686,-0.1703,-0.1817,-0.1843,-0.1842,-0.1823,-0.1779,-0.166,-0.1606,-0.1569,-0.1696,-0.159,-0.19,-0.1649,-0.1544,-0.1524,-0.1541,-0.1441,-0.1445,-0.1448,-0.145,-0.1452,-0.1419,-0.1415,-0.1446,-0.1441,-0.1465,-0.1466,-0.1464,-0.1527,-0.1535,-0.1541,-0.1607,-0.1544,-0.1544,-0.1378,-0.1312,-0.1278,-0.1406,-0.1368,-0.1383,-0.1402,-0.1413,-0.1313,-0.1158,-0.116,-0.1162,-0.1164,-0.1165,0,-0.1315,-0.1329,-0.1335,-0.1318,-0.128,-0.1344,-0.1367,-0.1344,-0.1306,-0.1318,-0.1304,-0.1168,-0.1073,-0.109,-0.0965,-0.0954,-0.0969,-0.0927,-0.0947,-0.0984,-0.1018,-0.1013,-0.0649,-0.0648,-0.0647,-0.0646,0,0,-0.1263,-0.1222,-0.1224,-0.1118,-0.1129,-0.107,-0.1055,-0.1029,-0.102,-0.0952,-0.0918,-0.099,-0.1025,-0.0832,-0.0792,-0.0695,-0.0834,-0.0658,-0.1065,-0.1122,-0.1155,-0.1258,-0.129,0,0,0,0,0]},{"header":{"parameterUnit":"m.s-1","parameterCategory":2,"la1":30.2991,"la2":30.254,"lo1":-89.0895,"lo2":-89.0444,"dy":0.0017,"dx":0.0017,"nx":28,"ny":28,"refTime":"2025-11-07T03:00:00:Z","depth":"2","parameterNumber":3,"parameterNumberName":"V-component_of_CURRENTS"},"data":[0,0,0,0,0,0,0,0,0,0,0,0,0,0,0,0,0,0,0,0,0,0,0,0,0,0,0,0,0,0,0,0,0,0,0,0,0,0,0,0,0,0,0,0,0,0,0,0,0,0,0,0,0,0,0,0,0,0,0.0026,0.0027,0,0.0115,0.0116,0.0117,0.0161,0.0161,0.0161,0.0161,0.0225,0.0226,0.0228,0,0,0,0,0,0,0,0,0,0,0,0,0,-0.0036,-0.0035,0.0026,0.0027,0.0028,0.0114,0.0116,0.0117,0.0161,0.0161,0.0161,0.0161,0.0224,0.0226,0.0228,0,0,0,0,0,0,0,0,0,0,0,0,0,0.0017,-0.0035,0.0026,0.0059,0.0063,0.0114,0.0116,0.0118,0.0161,0.0161,0.0161,0.0161,0.0223,0.0226,0.0229,0.0249,0,0,0.0237,0.0238,0,0,0,0,0,0,0,0,0.0014,0.0019,0.0053,0.0057,0.0061,0.0125,0.0117,0.016,0.0161,0.0125,0.0161,0.0161,0.0188,0.0194,0.0213,0.0252,0.0255,0.0237,0.0239,0.024,0.0241,0,0,0,0,0,0,0,0.001,0.0016,0.0063,0.0054,0.0059,0.0093,0.01,0.0126,0.0157,0.0129,0.0132,0.0139,0.0191,0.0211,0.0215,0.0256,0.0237,0.024,0.0241,0.0242,0.03,0.03,0,0,0,0,0,0,-0.0007,0.0012,0.006,0.0065,0.0035,0.0094,0.0102,0.0106,0.0158,0.0165,0.0139,0.0141,0.0206,0.0212,0.0217,0.0225,0.024,0.0243,0.0244,0.03,0.03,0.03,0,0,0,0,0,0,-0.0009,-0.0004,0.0056,0.004,0.005,0.0095,0.01,0.0108,0.0115,0.0166,0.0173,0.0136,0.0206,0.0214,0.0233,0.0228,0.0244,0.0246,0.03,0.03,0.03,0.0252,0,0,0,0,0,0,-0.0011,-0.0005,-0.0017,0.0038,0.005,0.0078,0.01,0.011,0.012,0.0123,0.0166,0.0172,0.0207,0.0229,0.0236,0.0232,0.0248,0.03,0.03,0.03,0.0253,0.025,0.0247,0,0,0,0,0,-0.0014,-0.003,-0.0018,-0.0013,0.0035,0.0077,0.0086,0.012,0.012,0.0124,0.0152,0.017,0.0233,0.0231,0.024,0.0236,0.03,0.03,0.03,0.0255,0.025,0.0247,0,0,0,0,0,0,-0.0065,-0.0025,-0.0012,-0.0016,0.0023,0.0084,0.0082,0.0107,0.0133,0.0125,0.0171,0.018,0.0196,0.0221,0.0218,0.0253,0.0269,0.0271,0.0232,0.0228,0.0225,0.0208,0.0251,0,0,0,0,0,-0.0082,-0.0087,-0.0032,-0.0039,-0.0024,0.0025,0.004,0.0066,0.0101,0.0111,0.0144,0.0174,0.0205,0.0218,0.0249,0.0266,0.0291,0.0269,0.0265,0.0262,0.0255,0.0298,0.0298,0.0299,0.0299,0.0299,0,0,-0.0107,-0.0086,-0.009,-0.0051,-0.0024,0.0001,0.0033,0.005,0.007,0.0113,0.0132,0.0161,0.0206,0.023,0.0239,0.0248,0.0274,0.0262,0.0259,0.0253,0.0298,0.0298,0.0298,0.0299,0.0299,0.0299,0,0,-0.0149,-0.0138,-0.0149,-0.0116,-0.0078,-0.0039,-0.004,0.0015,0.0036,0.0065,0.0098,0.0122,0.0169,0.0205,0.0228,0.0223,0.0255,0.0228,0.0199,0.0242,0.0242,0.0242,0.0266,0.0269,0.0227,0.0227,0.0227,0,-0.0181,-0.0181,-0.0145,-0.0134,-0.0118,-0.0061,-0.0056,-0.0016,0.0037,0.0046,0.0061,0.0125,0.0162,0.0194,0.0195,0.0216,0.0236,0.021,0.0237,0.0238,0.0239,0.0264,0.0268,0.0225,0.0225,0.0225,0.0225,0,-0.0214,-0.0213,-0.0217,-0.0185,-0.016,-0.015,-0.0086,-0.0069,-0.0042,0.0001,0.0029,0.0086,0.012,0.014,0.0169,0.0192,0.0202,0.0227,0.0244,0.0236,0.0263,0.0268,0.0221,0.0222,0.0223,0.0223,0,0,-0.0285,-0.025,-0.0252,-0.0251,-0.0189,-0.0176,-0.0146,-0.0104,-0.0103,-0.004,-0.0032,0.0036,0.0057,0.0084,0.0123,0.0163,0.0193,0.0191,0.0194,0.0209,0.0271,0.0293,0.0301,0.0222,0.0223,0.0223,0.0282,0,-0.0322,-0.0335,-0.0294,-0.0299,-0.0298,-0.0238,-0.0218,-0.0174,-0.0131,-0.0106,-0.0037,-0.0009,0.0042,0.0047,0.0097,0.0168,0.0205,0.0174,0.0281,0.0283,0.0301,0.0307,0.0282,0.0335,0.0287,0.0288,0.0289,0,-0.0359,-0.0367,-0.0387,-0.037,-0.0365,-0.0353,-0.0333,-0.0302,-0.0237,-0.0208,-0.0159,-0.0102,-0.0036,0.0007,0.013,0.0105,0.0176,0.0238,0.0243,0.0283,0.0315,0.0338,0.0346,0.0298,0.0297,0.0296,0.0296,0,-0.0438,-0.0428,-0.0459,-0.0449,-0.0415,-0.0421,-0.0399,-0.0346,-0.033,-0.0273,-0.0258,-0.017,-0.0124,-0.0021,0.012,0.0119,0.0257,0.0276,0.0363,0.0365,0.0375,0.0377,0.0358,0.0358,0.0358,0.0358,0.0357,0,-0.0488,-0.0508,-0.0504,-0.0518,-0.0556,-0.0502,-0.0522,-0.0487,-0.044,-0.042,-0.0321,-0.0281,-0.0127,-0.0019,0.0096,0.0248,0.0244,0.0356,0.0386,0.0357,0.0356,0.0351,0.0349,0.036,0.0359,0.0359,0.0358,0,-0.0556,-0.0549,-0.0582,-0.0584,-0.059,-0.0616,-0.0595,-0.0599,-0.0546,-0.0516,-0.0499,-0.0362,-0.0216,-0.0057,0.012,0.0221,0.036,0.0413,0.0361,0.0384,0.0438,0.0433,0.0502,0.0503,0.0505,0.0506,0.0506,0,-0.0588,-0.0619,-0.0652,-0.0676,-0.0677,-0.0702,-0.0713,-0.0664,-0.0651,-0.0554,-0.0538,-0.0396,-0.027,-0.0005,0.0186,0.0383,0.0396,0.0468,0.047,0.0433,0.0455,0.0448,0.0442,0.0459,0.046,0.046,0.046,0,-0.0653,-0.0671,-0.0704,-0.0764,-0.0788,-0.0802,-0.0804,-0.0811,-0.0737,-0.0687,-0.0578,-0.047,-0.0211,0.0016,0.0265,0.0379,0.0433,0.048,0.0469,0.0427,0.0398,0.0418,0.0412,0.0463,0.0463,0.0463,0.0462,0.0462,-0.0701,-0.0752,-0.0803,-0.0845,-0.0868,-0.0877,-0.0885,-0.0861,-0.0824,-0.0714,-0.061,-0.0414,-0.021,0.016,0.0329,0.0484,0.0483,0.0527,0.0524,0.0521,0.0506,0.0481,0.0558,0.0558,0.0558,0.0558,0.0559,0,-0.0754,-0.0814,-0.0875,-0.0916,-0.0931,-0.0927,-0.0923,-0.0898,-0.0842,-0.0709,-0.0575,-0.032,-0.0061,0.0153,0.04,0.0543,0.0529,0.0563,0.0517,0.0514,0.0511,0.0493,0.0542,0.0543,0.0543,0.0543,0,0,-0.0787,-0.0865,-0.0897,-0.0944,-0.0969,-0.0974,-0.0962,-0.0906,-0.0807,-0.0661,-0.0503,-0.0297,-0.0038,0.0133,0.0306,0.0434,0.0435,0.0444,0.0441,0.0362,0.0357,0.0475,0.0443,0,0,0,0,0]}],[{"header":{"parameterUnit":"m.s-1","parameterCategory":2,"la1":30.2991,"la2":30.254,"lo1":-89.0895,"lo2":-89.0444,"dy":0.0017,"dx":0.0017,"nx":28,"ny":28,"refTime":"2025-11-07T03:00:00:Z","depth":"4","parameterNumber":2,"parameterNumberName":"U-component_of_CURRENTS"},"data":[0,0,0,0,0,0,0,0,0,0,0,0,0,0,0,0,0,0,0,0,0,0,0,0,0,0,0,0,0,0,0,0,0,0,0,0,0,0,0,0,0,0,0,0,0,0,0,0,0,0,0,0,0,0,0,0,0,0,-0.0861,-0.0861,0,-0.0908,-0.0908,-0.0909,-0.0928,-0.0929,-0.0929,-0.0929,-0.0947,-0.0948,-0.0948,0,0,0,0,0,0,0,0,0,0,0,0,0,-0.0797,-0.0797,-0.0861,-0.0861,-0.0862,-0.0908,-0.0908,-0.0909,-0.0928,-0.0929,-0.0929,-0.0929,-0.0947,-0.0948,-0.0948,0,0,0,0,0,0,0,0,0,0,0,0,0,-0.0831,-0.0798,-0.086,-0.0879,-0.0881,-0.0908,-0.0908,-0.0909,-0.0928,-0.0929,-0.0929,-0.0929,-0.0947,-0.0947,-0.0948,-0.0951,0,0,-0.095,-0.0951,0,0,0,0,0,0,0,0,-0.0829,-0.0833,-0.0875,-0.0877,-0.088,-0.0914,-0.0893,-0.0922,-0.0928,-0.0909,-0.0929,-0.0929,-0.0934,-0.0936,-0.0943,-0.0952,-0.0953,-0.095,-0.0951,-0.0951,-0.0951,0,0,0,0,0,0,0,-0.0826,-0.0831,-0.0878,-0.0876,-0.0879,-0.0887,-0.0892,-0.0898,-0.0919,-0.091,-0.0912,-0.092,-0.0935,-0.0942,-0.0943,-0.0953,-0.095,-0.0951,-0.0951,-0.0952,-0.1008,-0.1009,0,0,0,0,0,0,-0.0823,-0.0829,-0.0876,-0.0879,-0.0856,-0.0889,-0.0894,-0.0901,-0.0919,-0.0923,-0.092,-0.0921,-0.0941,-0.0943,-0.0944,-0.0996,-0.0951,-0.0952,-0.0952,-0.1007,-0.1008,-0.1009,0,0,0,0,0,0,-0.0821,-0.0827,-0.0874,-0.0856,-0.0863,-0.089,-0.0898,-0.0902,-0.0923,-0.0927,-0.093,-0.0937,-0.0941,-0.0943,-0.097,-0.0995,-0.0952,-0.0953,-0.1006,-0.1007,-0.1009,-0.1068,0,0,0,0,0,0,-0.0819,-0.0826,-0.0835,-0.0856,-0.0864,-0.0899,-0.0898,-0.0903,-0.0927,-0.0929,-0.0943,-0.0944,-0.0941,-0.097,-0.0971,-0.0995,-0.0953,-0.1004,-0.1006,-0.1008,-0.1065,-0.1071,-0.1077,0,0,0,0,0,-0.0817,-0.0828,-0.0835,-0.0841,-0.0874,-0.09,-0.0905,-0.0923,-0.0928,-0.0941,-0.0957,-0.0944,-0.0983,-0.0971,-0.0973,-0.0997,-0.1003,-0.1006,-0.1008,-0.1062,-0.107,-0.1077,0,0,0,0,0,0,-0.0805,-0.0832,-0.084,-0.0859,-0.0882,-0.0904,-0.0918,-0.0931,-0.0954,-0.0958,-0.0961,-0.0964,-0.0996,-0.0988,-0.0974,-0.1019,-0.099,-0.0993,-0.103,-0.1038,-0.1044,-0.1045,-0.0954,0,0,0,0,0,-0.0807,-0.0821,-0.0848,-0.0864,-0.0876,-0.09,-0.0914,-0.0929,-0.095,-0.096,-0.0975,-0.0988,-0.1006,-0.1015,-0.1026,-0.105,-0.1055,-0.1065,-0.1072,-0.1077,-0.1079,-0.1107,-0.1116,-0.1017,-0.1017,-0.1017,0,0,-0.0808,-0.0823,-0.0832,-0.0862,-0.088,-0.0909,-0.0909,-0.0935,-0.0967,-0.0958,-0.1004,-0.1012,-0.1017,-0.105,-0.1063,-0.1047,-0.1113,-0.108,-0.1085,-0.1083,-0.111,-0.112,-0.1128,-0.1019,-0.1019,-0.1019,0,0,-0.0812,-0.0829,-0.0843,-0.0867,-0.0898,-0.0919,-0.093,-0.0964,-0.0987,-0.1029,-0.1034,-0.1061,-0.1084,-0.11,-0.1108,-0.1155,-0.1146,-0.1153,-0.1186,-0.1214,-0.1222,-0.1229,-0.1269,-0.1279,-0.1155,-0.1155,-0.1155,0,-0.0813,-0.0834,-0.0852,-0.0875,-0.0901,-0.0927,-0.0956,-0.0986,-0.1028,-0.1053,-0.105,-0.1109,-0.1111,-0.1159,-0.1172,-0.117,-0.1184,-0.1158,-0.1223,-0.123,-0.1236,-0.1274,-0.1285,-0.1158,-0.1158,-0.1158,-0.1157,0,-0.0825,-0.0852,-0.0864,-0.0904,-0.0935,-0.0963,-0.1008,-0.1046,-0.1076,-0.1105,-0.1162,-0.1177,-0.1208,-0.1217,-0.1206,-0.1256,-0.1252,-0.1229,-0.1204,-0.125,-0.1287,-0.1297,-0.1163,-0.1162,-0.1161,-0.116,0,0,-0.0804,-0.0861,-0.0868,-0.0896,-0.0954,-0.098,-0.1042,-0.1101,-0.1147,-0.1188,-0.1244,-0.1278,-0.1284,-0.1293,-0.1293,-0.1315,-0.1376,-0.1289,-0.1289,-0.133,-0.1449,-0.1311,-0.1308,-0.1361,-0.1363,-0.1364,-0.1464,0,-0.0811,-0.0852,-0.0888,-0.0946,-0.0974,-0.1029,-0.1088,-0.1146,-0.1196,-0.1257,-0.1288,-0.1337,-0.1315,-0.1335,-0.1355,-0.1367,-0.1401,-0.1351,-0.1396,-0.1398,-0.127,-0.1314,-0.1369,-0.1472,-0.1474,-0.1475,-0.1477,0,-0.0809,-0.084,-0.0888,-0.0971,-0.0992,-0.1035,-0.1131,-0.1188,-0.1276,-0.1316,-0.1368,-0.1393,-0.1444,-0.1411,-0.1472,-0.1439,-0.1449,-0.1458,-0.1461,-0.1314,-0.1276,-0.141,-0.1494,-0.1493,-0.1492,-0.149,-0.1489,0,-0.0771,-0.0845,-0.0882,-0.0909,-0.1003,-0.1045,-0.1103,-0.1198,-0.1262,-0.1352,-0.1405,-0.1461,-0.1502,-0.1521,-0.1529,-0.1509,-0.1586,-0.1563,-0.1462,-0.1454,-0.1523,-0.1514,-0.1613,-0.1612,-0.1612,-0.1612,-0.1612,0,-0.0755,-0.0791,-0.0866,-0.0886,-0.095,-0.1026,-0.1108,-0.1176,-0.1285,-0.1361,-0.1426,-0.1483,-0.1528,-0.1572,-0.1565,-0.1535,-0.162,-0.1475,-0.1465,-0.1549,-0.1541,-0.1532,-0.1521,-0.1616,-0.1615,-0.1614,-0.1614,0,-0.0705,-0.0755,-0.08,-0.0892,-0.0929,-0.0969,-0.1104,-0.1171,-0.1277,-0.1379,-0.1414,-0.152,-0.1554,-0.1591,-0.163,-0.1575,-0.1567,-0.154,-0.1649,-0.1643,-0.1418,-0.1409,-0.1446,-0.1442,-0.1438,-0.1435,-0.1433,0,-0.0683,-0.0697,-0.0782,-0.0812,-0.0854,-0.0936,-0.1008,-0.1142,-0.1221,-0.1386,-0.143,-0.151,-0.1555,-0.1514,-0.1545,-0.1535,-0.1505,-0.1515,-0.144,-0.1411,-0.1399,-0.1396,-0.1392,-0.1427,-0.1426,-0.1425,-0.1424,0,-0.0635,-0.0661,-0.0692,-0.0744,-0.0809,-0.0904,-0.1011,-0.1063,-0.1228,-0.1337,-0.1397,-0.1409,-0.1442,-0.1435,-0.1432,-0.1422,-0.1509,-0.1478,-0.1485,-0.1414,-0.1389,-0.138,-0.138,-0.1412,-0.1414,-0.1415,-0.1416,0,-0.0592,-0.0589,-0.0621,-0.0663,-0.0752,-0.0842,-0.0915,-0.1012,-0.1104,-0.1285,-0.1293,-0.136,-0.1434,-0.1379,-0.1379,-0.1344,-0.1315,-0.1275,-0.1292,-0.1306,-0.1203,-0.1146,-0.1092,0,0,0,0,0,-0.0543,-0.0526,-0.0551,-0.0603,-0.0695,-0.0755,-0.0913,-0.0999,-0.1153,-0.1159,-0.1224,-0.124,-0.1225,-0.1258,-0.1187,-0.1306,-0.1319,-0.1219,-0.1283,-0.1344,-0.1358,-0.1243,0,0,0,0,0,0,-0.0507,-0.051,-0.0509,-0.0545,-0.0582,-0.0697,-0.0796,-0.091,-0.0927,-0.1062,-0.1053,-0.1143,-0.1137,-0.1223,-0.1147,-0.1156,-0.1168,-0.1259,-0.1256,-0.1336,-0.1349,-0.136,-0.1247,0,0,0,0,0]},{"header":{"parameterUnit":"m.s-1","parameterCategory":2,"la1":30.2991,"la2":30.254,"lo1":-89.0895,"lo2":-89.0444,"dy":0.0017,"dx":0.0017,"nx":28,"ny":28,"refTime":"2025-11-07T03:00:00:Z","depth":"4","parameterNumber":3,"parameterNumberName":"V-component_of_CURRENTS"},"data":[0,0,0,0,0,0,0,0,0,0,0,0,0,0,0,0,0,0,0,0,0,0,0,0,0,0,0,0,0,0,0,0,0,0,0,0,0,0,0,0,0,0,0,0,0,0,0,0,0,0,0,0,0,0,0,0,0,0,-0.004,-0.004,0,-0.0019,-0.0018,-0.0018,0.0013,0.0014,0.0014,0.0014,0.0076,0.0077,0.0079,0,0,0,0,0,0,0,0,0,0,0,0,0,-0.0029,-0.003,-0.004,-0.004,-0.004,-0.0019,-0.0018,-0.0018,0.0013,0.0014,0.0014,0.0015,0.0076,0.0077,0.0079,0,0,0,0,0,0,0,0,0,0,0,0,0,-0.0023,-0.003,-0.004,-0.0022,-0.0021,-0.0019,-0.0018,-0.0018,0.0013,0.0014,0.0014,0.0015,0.0075,0.0077,0.0079,0.0076,0,0,0.0085,0.0085,0,0,0,0,0,0,0,0,-0.0023,-0.0023,-0.0025,-0.0024,-0.0022,-0.0006,0.0008,0.0015,0.0013,0.0001,0.0014,0.0015,0.0052,0.0055,0.0059,0.0079,0.0082,0.0085,0.0086,0.0087,0.0087,0,0,0,0,0,0,0,-0.0024,-0.0024,-0.0031,-0.0025,-0.0023,-0.0007,-0.0005,0.001,0.0024,0.0002,0.0004,0.0005,0.0053,0.0057,0.006,0.0083,0.0085,0.0086,0.0087,0.0088,0.0126,0.0126,0,0,0,0,0,0,-0.003,-0.0024,-0.0031,-0.003,-0.0022,-0.0008,-0.0006,-0.0011,0.0023,0.0028,0.0004,0.0006,0.0053,0.0058,0.0063,0.008,0.0087,0.0088,0.0089,0.0126,0.0126,0.0126,0,0,0,0,0,0,-0.003,-0.0031,-0.0032,-0.0027,-0.0026,-0.0009,-0.0014,-0.0011,-0.0004,0.0024,0.003,0.0007,0.0054,0.006,0.0077,0.0082,0.0089,0.0091,0.0126,0.0126,0.0126,0.0104,0,0,0,0,0,0,-0.003,-0.0032,-0.0036,-0.0028,-0.0027,-0.0035,-0.0015,-0.0011,-0.0006,-0.0003,0.0028,0.0034,0.0055,0.0074,0.0079,0.0085,0.0092,0.0126,0.0126,0.0126,0.0105,0.0103,0.0102,0,0,0,0,0,-0.003,-0.0044,-0.0037,-0.0037,-0.0034,-0.0036,-0.0034,-0.0018,-0.0006,-0.0009,0.0015,0.0034,0.0077,0.0076,0.0081,0.0088,0.0127,0.0126,0.0126,0.0105,0.0103,0.0102,0,0,0,0,0,0,-0.0041,-0.0042,-0.0034,-0.0046,-0.0042,-0.0031,-0.0033,-0.0022,-0.0006,-0.0,0.003,0.0038,0.0055,0.0071,0.0069,0.0098,0.0106,0.0106,0.0088,0.0086,0.0085,0.0073,0.0094,0,0,0,0,0,-0.0047,-0.0056,-0.0051,-0.006,-0.006,-0.0046,-0.0044,-0.0034,-0.002,-0.0013,0.0009,0.0034,0.0057,0.0071,0.0089,0.0103,0.0122,0.0111,0.0109,0.0108,0.0102,0.0129,0.0129,0.0125,0.0125,0.0125,0,0,-0.0053,-0.0055,-0.0059,-0.0063,-0.0057,-0.0063,-0.0043,-0.0045,-0.0041,-0.0009,0.0003,0.0027,0.0058,0.0075,0.0085,0.0091,0.0121,0.0108,0.0106,0.0101,0.0129,0.0129,0.013,0.0125,0.0125,0.0125,0,0,-0.0075,-0.0073,-0.0088,-0.0088,-0.0086,-0.0077,-0.0079,-0.0069,-0.0056,-0.0046,-0.0016,0.001,0.0036,0.0065,0.0082,0.0081,0.0109,0.0087,0.0075,0.0101,0.0102,0.0102,0.0137,0.0141,0.009,0.009,0.009,0,-0.0081,-0.0101,-0.0092,-0.0106,-0.011,-0.0086,-0.01,-0.0084,-0.0068,-0.0059,-0.0046,0.0001,0.0033,0.0061,0.0066,0.0079,0.0097,0.008,0.0099,0.01,0.0101,0.0136,0.0141,0.0089,0.0089,0.0089,0.0089,0,-0.0113,-0.0127,-0.0137,-0.0145,-0.0146,-0.0157,-0.0137,-0.0129,-0.011,-0.0091,-0.0065,-0.0023,0.0005,0.0024,0.0048,0.0073,0.0085,0.0091,0.0103,0.01,0.0138,0.0143,0.0088,0.0088,0.0088,0.0088,0,0,-0.013,-0.0156,-0.0159,-0.0175,-0.017,-0.0179,-0.0168,-0.0158,-0.0155,-0.0121,-0.0114,-0.0057,-0.0034,-0.0013,0.0024,0.0055,0.0092,0.0075,0.0077,0.0108,0.0155,0.0144,0.0149,0.0099,0.0099,0.01,0.0181,0,-0.0157,-0.02,-0.0199,-0.0231,-0.0252,-0.023,-0.0228,-0.0211,-0.0185,-0.017,-0.0113,-0.0092,-0.0047,-0.0034,0.0006,0.0066,0.0103,0.007,0.0154,0.0156,0.0146,0.0153,0.0101,0.0185,0.0186,0.0187,0.0188,0,-0.0185,-0.0215,-0.0257,-0.0287,-0.0293,-0.0303,-0.0301,-0.0295,-0.0255,-0.0235,-0.0195,-0.0155,-0.0093,-0.0064,0.0045,0.0019,0.0083,0.0132,0.0137,0.0135,0.0155,0.0187,0.0198,0.0197,0.0196,0.0196,0.0195,0,-0.021,-0.0253,-0.0291,-0.0301,-0.0326,-0.0337,-0.034,-0.0316,-0.0315,-0.0274,-0.0267,-0.0194,-0.0153,-0.0072,0.0047,0.0042,0.0161,0.0168,0.022,0.0221,0.0217,0.0215,0.0236,0.0235,0.0235,0.0235,0.0235,0,-0.0237,-0.0269,-0.0311,-0.0333,-0.0382,-0.0377,-0.0406,-0.0394,-0.0377,-0.0374,-0.0304,-0.0277,-0.0154,-0.0067,0.003,0.0146,0.0154,0.0218,0.0238,0.0207,0.0203,0.0221,0.0219,0.0238,0.0237,0.0237,0.0236,0,-0.0252,-0.0278,-0.0333,-0.0379,-0.0397,-0.043,-0.0461,-0.0475,-0.0447,-0.044,-0.0429,-0.0333,-0.0214,-0.0088,0.0059,0.0126,0.0234,0.0274,0.0239,0.0257,0.0281,0.0276,0.033,0.033,0.033,0.0331,0.0331,0,-0.0263,-0.0292,-0.0371,-0.0415,-0.0439,-0.0485,-0.0516,-0.0512,-0.0518,-0.0466,-0.0461,-0.0352,-0.0273,-0.0064,0.0062,0.0237,0.026,0.031,0.0287,0.0275,0.0289,0.0284,0.0279,0.0331,0.0331,0.0331,0.0331,0,-0.0284,-0.0313,-0.0361,-0.0452,-0.0506,-0.0563,-0.0597,-0.0609,-0.0586,-0.0566,-0.0473,-0.036,-0.0225,-0.0062,0.0076,0.02,0.027,0.0313,0.0313,0.0291,0.0277,0.029,0.0285,0.0332,0.0332,0.0332,0.0332,0,-0.0297,-0.0338,-0.0405,-0.0483,-0.0558,-0.0614,-0.0634,-0.0625,-0.0623,-0.0553,-0.0517,-0.0361,-0.0263,-0.008,0.0048,0.0165,0.0187,0.0213,0.0219,0.0219,0.0157,0.0121,0.0145,0,0,0,0,0,-0.0304,-0.0351,-0.043,-0.0522,-0.0597,-0.0638,-0.0676,-0.068,-0.0655,-0.0595,-0.0553,-0.042,-0.0215,-0.0119,-0.0003,0.0031,0.0189,0.0167,0.0217,0.0336,0.0335,0.0279,0,0,0,0,0,0,-0.0313,-0.038,-0.0428,-0.0534,-0.0597,-0.0676,-0.07,-0.0689,-0.0644,-0.0594,-0.0477,-0.0405,-0.0202,-0.0276,-0.0002,0.0033,0.0076,0.0269,0.0271,0.0336,0.0335,0.0335,0.0277,0,0,0,0,0]}]]